Location: Bacharowice
(49.9333°N, 19.5833°E)
Time: 09:33:11
(UTC+00:00)

Cosmos 1908 Rocket - Pass Details

Date: 03 October 2021
Orbit: 605 x 633 km, 82.5° (Epoch: 27 October)

Event Time Altitude Azimuth Distance (km) Brightness Sun altitude
Rises 03:06:41 0° 353° (N) 2,900 7.1 -16.5°
Reaches altitude 10° 03:08:59 10° 358° (N) 1,985 6.3 -16.1°
Maximum altitude 03:13:18 54° 76° (ENE) 747 4.3 -15.5°
Drops below altitude 10° 03:17:32 10° 154° (SSE) 1,956 6.3 -14.8°
Sets 03:19:46 0° 159° (SSE) 2,852 7.1 -14.4°
